Tracking 31027 objects as of 19-Jul-2025
HD Live streaming from Space Station
objects crossing your sky now

SL-12 R/B(2)

Track SL-12 R/B(2) now!


NORAD ID: 21221
Int'l Code: 1991-025E
Perigee: 19,092.6 km
Apogee: 19,170.9 km
Inclination: 64.6 °
Period: 675.5 minutes
Semi major axis: 25502 km
RCS: 2.0946 m2 (large)
Launch date: April 4, 1991
Source: Commonwealth of Independent States (former USSR) (CIS)
Launch site: TYURATAM MISSILE AND SPACE COMPLEX (TTMTR)

Note: This is a ROCKET BODY
Your satellite tracking list
Your tracking list is empty




NASA's NSSDC Master Catalog

Two Line Element Set (TLE):
1 21221U 91025E   25198.45102536 -.00000058  00000-0  00000-0 0  9990
2 21221  64.5632 315.7344 0015354 214.6051 154.7692  2.13168068266902
Source of the keplerian elements: AFSPC